Theta_e
351 353 354 351 351 349 346 344 342 345 342 342 341 341 339 339 341 340 339 351 349 349 351 349 349 351 353 353 352 351 350 349 349 350 350 349 347 346 347 346 345 343 342
355 355 356 354 351 352 349 346 346 346 344 342 342 343 342 342 343 343 341 344 348 347 349 351 351 351 352 353 352 351 350 348 347 349 348 349 348 347 346 346 346 345 344
357 354 354 351 350 350 352 351 349 348 344 345 344 344 346 344 344 344 345 343 343 347 347 348 350 352 353 355 353 351 349 348 346 346 348 348 348 346 346 346 346 346 344
359 360 353 350 350 353 350 346 345 342 341 340 340 340 344 345 344 347 345 345 344 343 345 347 348 348 352 353 353 352 349 347 346 345 346 347 347 346 346 345 345 345 344
356 354 352 350 354 349 349 347 343 341 340 342 339 345 348 347 348 347 347 347 347 346 344 345 346 346 349 352 352 350 350 347 344 345 346 346 347 346 346 345 345 344 344
355 354 352 353 355 348 345 343 340 343 342 341 340 341 348 348 349 348 348 350 346 348 344 344 342 342 346 349 349 348 350 349 346 345 345 345 345 345 345 345 345 344 343
351 352 351 349 351 346 344 342 341 342 340 340 344 343 346 350 348 346 350 349 346 345 345 346 344 344 344 346 346 348 348 349 347 345 343 343 344 344 345 345 344 344 343
347 348 348 347 345 343 344 344 345 337 339 344 342 342 336 339 344 347 346 345 347 345 344 346 346 347 347 344 342 345 347 347 347 346 343 342 342 344 344 344 344 344 344
345 345 347 344 347 345 340 346 344 343 336 342 347 342 333 330 339 345 345 345 345 346 344 344 345 345 348 344 343 344 344 345 346 347 345 342 343 344 344 344 343 343 344
342 344 345 345 345 341 345 345 344 341 343 340 345 348 347 343 333 333 343 344 345 345 345 345 343 344 345 342 347 346 342 343 345 345 345 343 344 343 344 343 343 342 343
346 345 346 343 342 344 340 344 341 344 346 344 341 344 344 343 343 337 332 336 340 342 345 345 341 343 343 342 340 342 338 339 340 341 341 341 343 342 344 343 343 343 342
346 350 345 346 345 346 344 341 345 347 347 345 341 346 344 340 337 338 336 334 333 338 341 344 343 339 341 340 342 339 337 335 334 334 336 337 339 341 341 344 343 342 342
340 344 346 343 341 342 343 342 347 348 348 345 344 348 348 344 344 340 337 334 331 337 337 342 339 341 339 337 340 340 338 333 330 329 330 332 335 337 339 340 342 342 342
333 340 352 348 347 348 348 351 352 352 353 351 351 352 347 347 344 342 341 335 329 331 334 332 338 339 338 338 337 337 334 331 328 326 326 328 330 332 334 336 337 337 338
336 340 339 344 357 355 355 354 353 354 355 355 353 352 351 346 347 347 344 339 333 326 326 332 332 339 338 337 334 337 337 330 329 325 324 325 326 328 330 330 332 331 331
338 339 340 344 356 355 356 356 356 356 354 354 353 350 349 348 349 346 343 340 337 333 326 332 333 337 337 338 334 335 335 330 327 324 324 322 323 324 325 326 327 327 328
340 339 339 341 342 347 353 354 354 354 352 352 350 348 347 349 348 344 343 340 338 337 328 329 336 337 334 332 333 334 334 335 329 324 323 322 320 320 321 321 322 324 324
339 339 339 341 342 345 347 348 350 354 351 349 347 346 348 349 348 345 342 339 336 335 331 327 332 332 330 333 330 331 330 335 334 324 321 318 317 316 315 316 318 320 320
336 336 340 339 340 342 346 350 352 353 348 347 348 347 348 348 345 343 342 339 338 337 334 330 330 331 329 330 326 326 328 331 329 325 320 320 318 316 315 315 315 316 315
331 333 334 340 338 341 342 348 352 351 347 348 349 349 348 347 343 344 341 338 337 334 334 332 330 327 326 329 327 324 324 329 328 328 322 321 320 317 315 314 316 316 313
330 332 333 337 339 340 343 344 349 349 346 347 348 350 347 343 336 340 341 337 336 334 332 330 328 327 323 325 324 325 325 326 328 329 328 325 325 322 318 314 320 319 312
327 329 331 336 339 339 324 320 340 348 347 346 345 345 340 331 328 324 323 323 333 335 331 329 327 325 324 325 328 326 323 321 319 329 327 326 327 323 322 322 316 311 310
327 329 332 336 338 339 317 312 321 347 347 346 345 344 339 338 332 330 315 319 318 319 323 332 327 326 326 326 328 326 325 323 322 326 328 322 327 322 324 320 310 308 308
327 330 332 336 338 340 308 309 316 347 346 346 345 343 341 338 337 336 333 332 332 329 328 330 332 330 330 331 331 329 326 326 327 326 328 319 323 321 324 322 308 308 308
326 330 331 335 338 341 304 307 327 344 343 343 343 342 340 337 315 315 334 331 331 324 310 308 309 307 308 309 322 329 325 323 320 323 327 321 320 320 321 320 314 309 307
328 330 329 334 332 341 306 307 328 342 340 339 339 329 314 328 303 309 333 332 328 326 324 325 324 318 315 317 311 329 327 322 320 319 326 319 319 320 318 322 319 314 313
Wind_Speed
5 5 4 5 7 7 9 8 8 8 10 11 10 6 6 6 5 3 1 13 12 12 12 13 13 13 12 13 13 12 12 11 10 10 11 12 12 12 17 17 16 16 15
6 5 5 3 4 4 6 9 8 7 6 5 5 7 7 6 5 4 4 5 14 13 14 14 15 15 14 14 14 14 13 11 11 11 11 12 13 13 14 16 17 16 15
7 6 5 5 5 5 7 4 3 2 3 2 3 5 5 6 5 6 5 4 5 14 14 15 15 15 15 15 15 14 13 12 11 11 11 12 13 13 14 15 16 18 16
6 5 5 5 6 5 4 3 3 4 4 5 4 5 6 6 7 6 6 5 5 5 13 15 17 17 16 16 16 14 13 12 11 11 11 12 13 13 14 14 14 16 16
12 7 5 5 5 4 3 4 4 4 3 3 5 7 5 5 5 5 7 7 7 6 4 12 17 16 15 15 16 15 14 13 12 12 12 13 13 14 14 14 14 14 14
11 10 7 5 5 3 3 1 4 2 3 5 8 6 5 5 5 5 6 5 6 6 6 5 6 8 16 17 18 17 16 16 14 13 13 13 13 14 14 14 15 14 14
7 7 8 6 4 4 4 4 3 6 6 7 5 5 6 7 7 6 5 5 6 6 6 5 5 6 7 20 18 18 17 16 16 15 14 13 13 14 14 14 14 14 13
8 9 10 6 7 5 4 6 6 5 5 7 4 4 4 4 8 7 4 4 6 5 6 8 9 8 6 5 6 12 16 17 17 16 15 14 14 14 14 14 14 13 13
11 13 13 11 8 7 7 8 8 9 9 6 11 6 4 4 2 2 6 4 6 4 5 5 6 6 6 5 6 9 14 14 16 16 17 14 15 15 15 14 14 13 13
16 9 12 11 12 8 10 11 11 11 8 9 7 13 8 2 1 3 1 6 5 5 5 3 5 5 5 4 8 11 15 12 13 14 16 15 15 16 15 15 14 13 13
10 13 12 16 12 12 15 13 13 11 7 3 5 18 7 3 5 5 6 3 3 4 5 5 5 3 5 5 4 6 10 10 10 10 12 13 14 14 15 15 15 13 12
6 13 15 9 8 10 13 11 10 7 8 7 14 19 6 5 4 4 5 5 5 4 4 5 5 5 4 5 5 7 11 10 8 8 9 10 11 12 14 14 15 15 14
4 11 9 10 11 14 14 12 11 7 8 13 20 15 6 5 5 4 6 6 3 3 3 3 5 4 4 3 3 8 10 10 9 8 8 8 8 10 12 13 14 14 12
5 6 8 14 15 15 14 12 10 9 11 14 19 11 7 6 4 4 3 3 1 3 3 4 4 4 4 4 5 10 6 10 9 9 8 7 7 9 10 12 12 11 11
6 9 8 8 13 12 12 12 10 12 11 11 11 10 8 6 4 4 3 3 4 3 2 4 2 2 4 4 4 2 1 11 8 8 8 8 8 9 9 10 12 11 12
9 10 12 10 8 11 10 11 11 13 12 10 9 11 10 5 5 4 3 4 3 4 1 3 1 4 4 4 4 2 4 5 8 8 8 8 8 9 9 10 11 12 14
9 10 13 12 12 10 10 13 14 13 13 12 10 10 10 7 6 4 4 4 4 3 3 1 3 3 2 1 0 4 3 4 4 9 9 9 8 8 8 10 12 14 13
9 11 13 14 13 13 14 14 15 14 13 13 12 11 11 8 8 6 5 6 4 5 4 4 4 3 2 4 4 4 3 4 0 4 6 5 6 6 7 10 12 15 14
11 11 14 14 14 15 13 16 16 15 13 14 14 13 11 11 8 4 4 5 4 3 3 3 3 3 2 2 2 2 3 3 3 7 7 7 6 5 7 11 13 15 14
12 13 14 16 15 15 16 14 14 14 13 14 14 13 10 10 9 8 6 5 3 3 3 3 4 3 2 3 3 1 1 2 3 4 6 7 6 6 8 10 12 14 14
13 14 14 17 15 14 12 15 15 15 15 12 12 11 8 8 11 10 5 5 6 4 3 4 3 3 3 3 4 3 2 3 1 1 4 3 4 2 2 5 9 13 13
14 14 15 16 17 12 16 18 16 14 13 12 11 9 6 9 8 12 11 5 5 4 4 4 4 4 5 4 4 5 4 3 2 2 3 3 4 2 2 3 7 11 13
15 15 13 15 18 15 15 16 19 11 12 11 9 7 7 6 10 8 6 9 8 8 4 5 4 5 5 6 5 5 5 5 4 4 3 2 2 3 2 2 10 12 13
14 14 11 14 17 14 13 18 18 14 10 9 8 8 8 8 9 9 8 6 6 5 4 3 4 4 4 6 5 4 4 4 4 3 3 3 2 2 2 2 8 10 11
15 12 11 14 18 14 11 15 15 15 10 8 9 8 7 8 10 7 8 7 6 6 5 9 9 4 4 3 5 4 3 4 2 3 3 3 2 2 1 1 2 6 9
13 8 13 15 19 12 13 16 13 9 9 8 7 5 4 10 11 10 3 5 5 7 7 5 3 3 3 4 6 4 4 4 3 2 4 4 3 3 2 2 3 3 3
Wind_Direction
230 196 210 204 171 194 185 204 219 209 213 219 227 233 253 255 266 286 258 181 190 201 202 205 211 220 227 227 224 223 222 221 218 215 210 204 201 198 197 202 210 210 207
191 228 185 235 250 223 194 202 211 216 210 209 247 225 224 233 254 251 239 201 199 206 209 208 213 224 229 235 230 219 219 215 219 216 213 206 206 207 207 208 209 210 203
204 192 186 199 238 230 246 248 290 265 250 266 229 258 255 219 226 234 244 240 203 214 217 218 213 218 225 237 237 222 214 212 216 218 211 206 207 207 211 213 212 213 207
205 215 199 208 223 224 208 207 225 260 261 219 220 238 220 220 218 224 216 225 218 243 219 219 214 218 219 228 238 229 213 211 210 221 214 207 205 206 210 215 217 213 212
201 210 205 220 242 236 209 188 209 244 276 237 245 241 216 226 221 222 224 210 212 218 238 208 220 215 219 227 235 236 215 209 212 217 217 212 207 208 211 213 215 211 207
189 196 226 205 225 212 229 237 248 247 258 243 253 244 221 222 206 216 218 218 214 210 208 233 187 207 218 224 234 232 221 210 215 217 215 210 209 209 209 211 215 214 212
182 193 208 214 200 204 238 227 250 237 244 246 279 271 256 231 220 219 204 205 211 217 208 204 177 191 203 228 222 226 228 221 215 218 215 207 210 211 210 209 214 214 212
200 187 206 190 217 191 224 226 211 253 284 247 243 237 262 260 227 215 206 219 226 213 211 198 192 196 213 192 222 229 233 228 227 220 213 205 210 212 211 210 209 210 208
231 208 200 173 205 187 209 203 201 209 239 254 228 223 245 226 36 168 217 202 240 211 199 203 203 197 210 187 202 228 230 226 233 232 211 204 207 212 213 210 205 205 204
222 215 222 186 186 202 219 210 198 211 219 243 308 251 239 149 140 329 147 218 237 196 212 215 205 207 213 211 204 206 217 211 222 226 221 213 206 212 212 210 203 203 205
216 224 212 209 193 192 221 217 227 193 187 213 272 264 231 195 198 215 268 261 202 218 210 195 203 182 205 206 217 193 185 188 212 220 229 220 211 211 210 207 204 201 206
210 221 211 212 195 212 219 227 250 180 166 219 260 249 208 196 184 182 218 247 211 222 184 194 191 207 202 207 207 155 183 180 199 206 222 230 216 206 209 202 203 208 211
232 233 221 215 208 219 226 230 231 208 196 215 236 245 257 225 164 183 195 228 159 215 205 173 200 205 220 212 170 165 164 175 191 203 211 221 206 213 204 200 197 206 207
258 261 211 223 220 219 220 222 232 226 220 221 226 225 232 250 190 188 189 138 262 224 166 208 199 192 206 146 143 149 161 186 204 198 202 207 192 208 202 191 184 191 184
287 269 267 235 218 224 220 220 227 234 232 224 217 227 226 237 250 170 171 152 171 231 252 239 163 122 100 103 118 274 270 187 199 189 188 186 199 198 188 185 179 172 153
273 282 290 287 223 218 228 221 227 229 228 218 218 215 225 213 239 162 165 172 195 208 221 177 148 112 70 85 107 46 72 149 199 192 184 182 191 194 189 182 169 158 164
257 255 260 269 270 231 228 230 232 225 219 215 214 220 216 205 229 169 166 176 203 203 203 36 108 87 94 161 131 52 10 288 170 194 184 183 189 187 179 164 162 169 165
256 260 256 256 250 243 223 233 234 223 214 204 213 211 208 205 225 191 177 194 204 200 159 147 136 125 103 74 39 355 284 294 63 161 149 148 158 164 160 159 166 169 167
271 261 271 244 248 240 234 220 224 214 206 205 208 206 200 197 203 188 174 194 209 168 134 138 140 108 107 116 93 319 297 333 80 139 138 162 159 147 155 170 176 179 171
267 270 268 267 247 239 237 219 212 208 217 203 202 201 197 195 193 181 178 205 237 165 149 133 119 125 148 151 139 166 312 50 121 106 69 100 128 149 172 185 186 185 173
261 265 269 275 251 245 228 223 206 204 207 202 200 197 187 198 180 161 156 201 198 172 142 124 138 143 154 146 193 170 144 108 10 79 132 153 124 121 163 188 192 186 163
265 262 262 269 263 252 235 199 192 201 205 197 185 176 127 123 118 124 117 114 179 163 146 146 168 176 191 173 176 166 150 141 187 264 138 117 125 133 154 185 178 156 159
256 254 251 264 269 254 239 200 183 188 192 179 160 156 152 147 136 133 103 106 93 102 127 171 195 198 171 190 158 177 176 181 181 168 160 112 106 114 149 129 156 157 156
257 253 252 264 264 253 199 198 176 172 167 158 153 164 175 152 164 157 157 160 155 159 165 186 207 210 202 176 165 179 166 148 90 145 172 111 53 68 94 109 154 162 168
254 252 259 266 256 246 230 173 169 162 160 148 146 166 172 154 150 131 164 171 181 123 65 77 89 98 143 127 148 134 165 162 148 153 177 113 132 136 166 151 157 164 159
247 256 267 258 249 227 199 194 162 139 146 143 130 114 126 128 145 143 158 160 170 152 146 137 124 113 143 155 155 177 188 187 165 150 167 112 135 154 176 160 158 166 181